LTFM

Istanbul Airport

Airport
ICAO code
LTFM
IATA Code
IST
Summary
ICAO Region
EUR
ICAO Territory
Location

Arnavutkoy, Istanbul

Serving
Istanbul
Elevation
325 ft
Coordinates
41° 15' 41" N , 28° 44' 34" E
KCC
Metar
LTFM 251420Z 01018KT 9999 BKN008 18/15 Q1017 NOSIG

Istanbul Airport is the main international airport serving Istanbul, Turkey. It is located in the Arnavutköy district on the European side of the city.

Climatology

Dry-summer subtropical ”Mediterranean" climate (Köppen climate classification Csa)

Airport map

Aerial View

SKYbrary Partners:

Safety knowledge contributed by: